Location: Skymont Scout Reservation
(35.4344°N, 85.8742°W)
Time: 03:24:36
(UTC-05:00)

ISS - All Passes

Search period start: 26 July 2016 00:00
Search period end: 05 August 2016 00:00
Orbit: 401 x 404 km, 51.6° (Epoch: 26 July)

Date Brightness Start Highest point End Pass type
(mag) Time Alt. Az. Time Alt. Az. Time Alt. Az.
26 Jul - 03:50:54 10° NNW 03:53:26 20° NNE 03:55:58 10° E visible
26 Jul - 05:26:55 10° WNW 05:29:57 36° SW 05:32:57 10° SSE daylight
26 Jul - 20:28:00 10° S 20:30:47 26° SE 20:33:34 10° ENE visible
26 Jul - 22:04:24 10° W 22:07:09 25° NW 22:09:57 10° NNE visible
27 Jul - 02:58:39 10° N 03:00:16 13° NNE 03:01:53 10° NE visible
27 Jul - 04:33:49 10° NW 04:37:05 85° SW 04:40:20 10° SE visible
27 Jul - 19:36:34 10° SSE 19:38:02 13° SE 19:39:31 10° E daylight
27 Jul - 21:10:58 10° WSW 21:14:08 48° NW 21:17:18 10° NE visible
28 Jul - 03:41:00 10° NW 03:44:09 43° NE 03:47:16 10° ESE visible
28 Jul - 05:18:30 10° W 05:20:16 14° SW 05:22:03 10° SSW visible
28 Jul - 20:17:58 10° SW 20:21:12 76° SE 20:24:27 10° NE visible
28 Jul - 21:56:12 10° WNW 21:57:58 14° NNW 21:59:45 10° N visible
29 Jul - 02:48:23 10° NNW 02:51:06 23° NNE 02:53:47 10° E night (unlit)
29 Jul - 04:24:38 10° WNW 04:27:31 29° SW 04:30:23 10° SSE visible
29 Jul - 19:25:24 10° SSW 19:28:21 32° SE 19:31:18 10° ENE daylight
29 Jul - 21:02:12 10° W 21:04:49 22° NNW 21:07:26 10° NNE visible
30 Jul - 01:56:01 10° N 01:57:57 15° NNE 01:59:52 10° ENE night (unlit)
30 Jul - 03:31:27 10° NW 03:34:41 67° SW 03:37:54 10° SE night (unlit)
30 Jul - 18:33:34 10° SSE 18:35:34 15° SE 18:37:35 10° E daylight
30 Jul - 20:08:40 10° WSW 20:11:45 39° NW 20:14:50 10° NE visible
31 Jul - 02:38:32 10° NW 02:41:44 54° NE 02:44:56 10° ESE night (unlit)
31 Jul - 04:16:44 10° WSW 04:17:48 11° SW 04:18:52 10° SW night (unlit)
31 Jul - 19:15:31 10° SW 19:18:46 86° NW 19:22:02 10° NE daylight
31 Jul - 20:54:12 10° NW 20:55:37 12° NNW 20:57:03 10° N visible
01 Aug - 01:45:52 10° NNW 01:48:43 27° NE 01:51:33 10° E night (unlit)
01 Aug - 03:22:23 10° WNW 03:25:03 24° SW 03:27:43 10° S night (unlit)
01 Aug - 18:22:48 10° SSW 18:25:53 40° SE 18:28:58 10° ENE daylight
01 Aug - 20:00:01 10° W 20:02:26 19° NNW 20:04:52 10° NNE daylight
02 Aug - 00:53:24 10° NNW 00:55:35 17° NNE 00:57:46 10° ENE night (unlit)
02 Aug - 02:29:03 10° WNW 02:32:13 53° SW 02:35:23 10° SSE night (unlit)
02 Aug - 17:30:42 10° S 17:33:05 19° SE 17:35:28 10° E daylight
02 Aug - 19:06:20 10° WSW 19:09:20 33° NW 19:12:20 10° NNE daylight
03 Aug - 00:01:29 10° N 00:02:21 11° NNE 00:03:15 10° NE visible
03 Aug - 01:36:04 10° NW 01:39:18 67° NE 01:42:32 10° SE night (unlit)
03 Aug - 18:13:06 10° SW 18:16:19 69° NW 18:19:34 10° NE daylight
03 Aug - 19:52:18 10° NW 19:53:16 11° NNW 19:54:14 10° N daylight
04 Aug - 00:43:19 10° NNW 00:46:18 32° NE 00:49:16 10° ESE night (unlit)
04 Aug - 02:20:09 10° W 02:22:33 19° SW 02:24:58 10° S night (unlit)
04 Aug - 17:20:14 10° SSW 17:23:24 51° SE 17:26:35 10° ENE daylight
04 Aug - 18:57:49 10° WNW 19:00:02 17° NNW 19:02:15 10° NNE daylight
04 Aug - 23:50:46 10° NNW 23:53:11 19° NNE 23:55:35 10° ENE visible
